STARLINK-11556, 62838

Orbit data source: Space-Track

STARLINK-11556, 62838 is a payload satellite owned by SpaceX/Seattle (US) in LEO that was launched on Mon, 27 Jan 2025 UTC via an FALCON 9 launch vehicle from the Air Force Eastern Test Range (AFETR). Payload-class satellites include a variety of spacecraft equipped with specific instruments for various scientific and technological missions. These include communications satellites like Starlink; space stations such as the ISS; scientific satellites like the Hubble; Earth observation satellites from companies like Planet Labs, Umbra, and HawkEye 360; GPS; miniature CubeSats for education and research; and military/defense satellites.

Loading next visibility...
Identifier
62838, 2025-019K
Orbit
LEO
Country
Flag of USUS
Related business
Manufacturer
SpaceX/Seattle
Mission
Operational Commercial Communications
Bus & Motor
STARLINK V2MD, Unknown motor
Mass
960 kg wet, ~910 kg dry
Launch date (UTC)
2025-01-27 (8 months ago)
Launch vehicle
FALCON 9
Launch site
Air Force Eastern Test Range (AFETR)
Object type
Payload
Rocket body
Debris
Shape & HBR
Box + 2 Pan, 14.5 m
Radar Cross Section
36.964 m², Large (>1 m²)

Expand to show TLE details & history
Last TLE update: 20 hours ago

TLE from 20 hours ago
0 STARLINK-11556
1 62838U 25019K   25260.00002315 -.00007659  00000-0 -56194-4 0  9998
2 62838  42.9998 272.7268 0001674 264.7075 183.5564 15.70860568  6018
Epoch: 2025-09-17T00:00Z
TLE epoch observation values (Epoch: 2025-09-17T00:00:02Z)
Latitude
43.13608°
Longitude
4.15886°
Altitude
360.676 km
Speed
7.698 km/s
True Right ascension
00h 01m 23s
True Declination
42° 57' 16"
Sunlit
Object was in full shadow at epoch
Visualization orbit readout
Latitude
Unknown
Longitude
Unknown
Altitude
Unknown
Speed
Unknown
Apparent Right ascension
Unknown
Apparent Declination
Unknown
Sunlit
N/A
Visualization observer readout
Local Sidereal Time
12:32:59
Azimuth
Unknown
Elevation
Unknown
Doppler factor
Unknown
Orbital elements
Apogee altitude
359.546 km
Perigee altitude
357.29 km
Semi-major axis
6,736.555 km
Eccentricity
0.00017
Inclination
42.9998°
RAAN
272.7268°
Arg. of periapsis
264.7075°
True anomaly
183.55521°
Mean anomaly
183.5564°
Eccentric anomaly
183.55581°
Mean motion
3.92542 °/min
Orbital period
91.71 mins
BSTAR
-0.000056194
Loading maneuver chart data...
Computing Atmospheric mass density...
Loading historical data...
Loading historical data...
Loading historical data...
Loading historical data...
Loading historical data...
Loading historical data...
Loading historical data...

Documentation

Showing up to 5 results
|